When you browse on this site, cookies collect data to enhance your experience and personalize the content and advertising you see.
Visit our Privacy Policy to learn more. By continuing to use the site, you agree to this use of cookies and data.
  • En España
  • Lista de países
  • Para 7 días
  • Temperatura del agua
  • Mapa Satelital
  • El tiempo en el mapa
  • Informadores
  • user-avatar
    Iniciar sesión

    Tiempo cada hora Chervonosillya

    Hoy, 25 Marzo, Lunes

    Tiempo Temperatura Precipitaciones Viento Presión Humedad
    00:00 +5°C° 0 mm 2 mps 753 mmHg 80%
    01:00 +6°C° 0 mm 1 mps 753 mmHg 79%
    02:00 +6°C° 0 mm 1 mps 752 mmHg 81%
    03:00 +6°C° 0 mm 1 mps 752 mmHg 81%
    04:00 +6°C° 0 mm 1 mps 752 mmHg 82%
    05:00 +4°C° 0 mm 2 mps 752 mmHg 82%
    06:00 +5°C° 0 mm 2 mps 752 mmHg 77%
    07:00 +7°C° 0 mm 2 mps 752 mmHg 73%
    08:00 +7°C° 0 mm 2 mps 752 mmHg 69%
    09:00 +9°C° 0 mm 2 mps 751 mmHg 63%
    10:00 +10°C° 0 mm 2 mps 751 mmHg 56%
    11:00 +11°C° 0 mm 3 mps 751 mmHg 49%
    12:00 +12°C° 0 mm 3 mps 751 mmHg 47%
    13:00 +12°C° 0 mm 3 mps 750 mmHg 45%
    14:00 +12°C° 0 mm 3 mps 750 mmHg 43%
    15:00 +12°C° 0.1 mm 3 mps 749 mmHg 47%
    16:00 +11°C° 0.1 mm 3 mps 749 mmHg 52%
    17:00 +10°C° 0.1 mm 3 mps 748 mmHg 56%
    18:00 +10°C° 0.2 mm 3 mps 748 mmHg 62%
    19:00 +9°C° 0.2 mm 2 mps 748 mmHg 68%
    20:00 +8°C° 0.2 mm 2 mps 748 mmHg 74%
    21:00 +8°C° 0.1 mm 2 mps 748 mmHg 78%
    22:00 +7°C° 0.1 mm 3 mps 748 mmHg 82%
    23:00 +6°C° 0.1 mm 4 mps 748 mmHg 87%

    Mañana, 26 Marzo, Martes

    Tiempo Temperatura Precipitaciones Viento Presión Humedad
    00:00 +5°C° 0 mm 3 mps 748 mmHg 88%
    01:00 +5°C° 0 mm 3 mps 748 mmHg 89%
    02:00 +5°C° 0 mm 3 mps 748 mmHg 91%
    03:00 +5°C° 0 mm 2 mps 748 mmHg 92%
    04:00 +5°C° 0 mm 2 mps 748 mmHg 93%
    05:00 +6°C° 0 mm 1 mps 749 mmHg 94%
    06:00 +6°C° 0 mm 2 mps 749 mmHg 89%
    07:00 +6°C° 0 mm 2 mps 749 mmHg 85%
    08:00 +7°C° 0 mm 2 mps 750 mmHg 81%
    09:00 +8°C° 0 mm 2 mps 750 mmHg 73%
    10:00 +9°C° 0 mm 2 mps 750 mmHg 66%
    11:00 +10°C° 0 mm 2 mps 750 mmHg 58%
    12:00 +12°C° 0 mm 2 mps 750 mmHg 53%
    13:00 +11°C° 0 mm 3 mps 750 mmHg 48%
    14:00 +12°C° 0 mm 4 mps 750 mmHg 44%
    15:00 +11°C° 0.1 mm 4 mps 750 mmHg 48%
    16:00 +10°C° 0.1 mm 5 mps 750 mmHg 53%
    17:00 +9°C° 0.1 mm 6 mps 750 mmHg 57%
    18:00 +8°C° 0 mm 5 mps 750 mmHg 60%
    19:00 +7°C° 0 mm 4 mps 751 mmHg 63%
    20:00 +7°C° 0 mm 3 mps 751 mmHg 66%
    21:00 +5°C° 0 mm 3 mps 751 mmHg 68%
    22:00 +5°C° 0 mm 3 mps 752 mmHg 69%
    23:00 +5°C° 0 mm 2 mps 752 mmHg 71%

    Pasado mañana, 27 Marzo, Miércoles

    Tiempo Temperatura Precipitaciones Viento Presión Humedad
    00:00 +4°C° 0 mm 2 mps 752 mmHg 72%
    01:00 +4°C° 0 mm 2 mps 752 mmHg 73%
    02:00 +3°C° 0 mm 2 mps 752 mmHg 75%
    03:00 +3°C° 0 mm 2 mps 752 mmHg 75%
    04:00 +3°C° 0 mm 2 mps 751 mmHg 76%
    05:00 +2°C° 0 mm 2 mps 751 mmHg 77%
    06:00 +1°C° 0.3 mm 4 mps 751 mmHg 75%
    07:00 +1°C° 0.3 mm 5 mps 751 mmHg 74%
    08:00 +2°C° 0.3 mm 6 mps 751 mmHg 73%
    09:00 +2°C° 0.3 mm 6 mps 751 mmHg 70%
    10:00 +2°C° 0.3 mm 7 mps 751 mmHg 68%
    11:00 +2°C° 0.3 mm 7 mps 751 mmHg 66%
    12:00 +3°C° 0 mm 7 mps 752 mmHg 64%
    13:00 +4°C° 0 mm 7 mps 752 mmHg 63%
    14:00 +4°C° 0 mm 7 mps 752 mmHg 61%
    15:00 +4°C° 0.1 mm 7 mps 753 mmHg 65%
    16:00 +2°C° 0.1 mm 8 mps 753 mmHg 69%
    17:00 +2°C° 0.1 mm 9 mps 754 mmHg 73%
    18:00 +1°C° 0.1 mm 9 mps 754 mmHg 75%
    19:00 0°C° 0.1 mm 9 mps 755 mmHg 77%
    20:00 -2°C° 0.1 mm 10 mps 756 mmHg 79%
    21:00 -1°C° 0.4 mm 9 mps 756 mmHg 80%
    22:00 -1°C° 0.4 mm 8 mps 756 mmHg 81%
    23:00 -1°C° 0.4 mm 8 mps 757 mmHg 82%

    28 Marzo, Jueves

    Tiempo Temperatura Precipitaciones Viento Presión Humedad
    00:00 -2°C° 0.5 mm 8 mps 757 mmHg 83%
    01:00 -2°C° 0.5 mm 8 mps 757 mmHg 84%
    02:00 -2°C° 0.5 mm 8 mps 758 mmHg 85%
    03:00 -2°C° 0.4 mm 7 mps 758 mmHg 85%
    04:00 -3°C° 0.4 mm 7 mps 758 mmHg 86%
    05:00 -3°C° 0.4 mm 7 mps 759 mmHg 87%
    06:00 -3°C° 0.2 mm 7 mps 759 mmHg 85%
    07:00 -3°C° 0.2 mm 7 mps 760 mmHg 83%
    08:00 -2°C° 0.2 mm 6 mps 760 mmHg 82%
    09:00 -2°C° 0 mm 7 mps 761 mmHg 79%
    10:00 -1°C° 0 mm 7 mps 761 mmHg 76%
    11:00 0°C° 0 mm 7 mps 761 mmHg 72%
    12:00 0°C° 0 mm 7 mps 761 mmHg 69%
    13:00 +2°C° 0 mm 6 mps 761 mmHg 65%
    14:00 +2°C° 0 mm 6 mps 761 mmHg 61%
    15:00 +2°C° 0 mm 6 mps 762 mmHg 61%
    16:00 +2°C° 0 mm 6 mps 762 mmHg 61%
    17:00 +2°C° 0 mm 5 mps 762 mmHg 60%
    18:00 +1°C° 0 mm 5 mps 762 mmHg 64%
    19:00 +1°C° 0 mm 4 mps 763 mmHg 67%
    20:00 0°C° 0 mm 4 mps 763 mmHg 71%
    21:00 -1°C° 0 mm 4 mps 764 mmHg 73%
    22:00 0°C° 0 mm 3 mps 764 mmHg 74%
    23:00 -1°C° 0 mm 3 mps 764 mmHg 75%

    29 Marzo, Viernes

    Tiempo Temperatura Precipitaciones Viento Presión Humedad
    00:00 -1°C° 0 mm 3 mps 764 mmHg 76%
    01:00 -1°C° 0 mm 3 mps 764 mmHg 76%
    02:00 -1°C° 0 mm 3 mps 764 mmHg 77%
    03:00 -1°C° 0 mm 3 mps 764 mmHg 77%
    04:00 -1°C° 0 mm 3 mps 764 mmHg 77%
    05:00 -2°C° 0 mm 3 mps 764 mmHg 77%
    06:00 0°C° 0 mm 3 mps 763 mmHg 71%
    07:00 0°C° 0 mm 4 mps 763 mmHg 64%
    08:00 +1°C° 0 mm 5 mps 763 mmHg 58%
    09:00 +2°C° 0 mm 5 mps 763 mmHg 53%
    10:00 +5°C° 0 mm 5 mps 762 mmHg 48%
    11:00 +6°C° 0 mm 5 mps 762 mmHg 43%
    12:00 +5°C° 0 mm 6 mps 761 mmHg 42%
    13:00 +7°C° 0 mm 6 mps 760 mmHg 41%
    14:00 +8°C° 0 mm 7 mps 759 mmHg 41%
    15:00 +8°C° 0 mm 6 mps 759 mmHg 43%
    16:00 +8°C° 0 mm 6 mps 758 mmHg 46%
    17:00 +7°C° 0 mm 6 mps 758 mmHg 48%
    18:00 +7°C° 0 mm 6 mps 758 mmHg 55%
    19:00 +7°C° 0 mm 6 mps 758 mmHg 61%
    20:00 +5°C° 0 mm 6 mps 757 mmHg 67%
    21:00 +5°C° 0 mm 5 mps 757 mmHg 70%
    22:00 +3°C° 0 mm 5 mps 758 mmHg 73%
    23:00 +3°C° 0 mm 4 mps 758 mmHg 76%

    30 Marzo, Sábado

    Tiempo Temperatura Precipitaciones Viento Presión Humedad
    00:00 +1°C° 0 mm 4 mps 758 mmHg 77%
    01:00 +1°C° 0 mm 4 mps 758 mmHg 79%
    02:00 +1°C° 0 mm 3 mps 758 mmHg 80%
    03:00 +1°C° 0 mm 3 mps 759 mmHg 82%
    04:00 0°C° 0 mm 3 mps 759 mmHg 84%
    05:00 0°C° 0 mm 3 mps 759 mmHg 86%
    06:00 +1°C° 0 mm 3 mps 759 mmHg 80%
    07:00 +2°C° 0 mm 3 mps 759 mmHg 74%
    08:00 +4°C° 0 mm 3 mps 760 mmHg 68%
    09:00 +5°C° 0 mm 3 mps 760 mmHg 60%
    10:00 +7°C° 0 mm 3 mps 760 mmHg 53%
    11:00 +9°C° 0 mm 3 mps 759 mmHg 46%
    12:00 +9°C° 0 mm 3 mps 759 mmHg 44%
    13:00 +10°C° 0 mm 3 mps 759 mmHg 41%
    14:00 +11°C° 0 mm 3 mps 758 mmHg 38%
    15:00 +10°C° 0 mm 2 mps 758 mmHg 40%
    16:00 +10°C° 0 mm 2 mps 758 mmHg 41%
    17:00 +10°C° 0 mm 2 mps 758 mmHg 42%
    18:00 +9°C° 0 mm 2 mps 758 mmHg 46%
    19:00 +9°C° 0 mm 1 mps 758 mmHg 51%
    20:00 +8°C° 0 mm 1 mps 758 mmHg 55%
    21:00 +7°C° 0 mm 1 mps 758 mmHg 56%
    22:00 +7°C° 0 mm 1 mps 758 mmHg 57%
    23:00 +7°C° 0 mm 1 mps 758 mmHg 58%
    Mostrar más